GW0206 Weather Reports


Display with metric or nautical units.
time (UTC)temp
F
wind
direction
speed
MPH
gust
MPH
rain 1hr
in
rain 24hr
in
rain mn
in
humidity
%
barometer
mb
20220813210045 73 234 1.0 5.0 0.00 0.00 0.00 55 1018.3
20220813205533 74 238 3.0 6.0 0.00 0.00 0.00 54 1018.3
20220813205019 74 280 3.0 6.0 0.00 0.00 0.00 53 1018.4
20220813204504 74 303 2.0 6.0 0.00 0.00 0.00 55 1018.4
20220813204054 74 281 2.0 6.0 0.00 0.00 0.00 55 1018.3
20220813203544 74 293 3.0 10.0 0.00 0.00 0.00 53 1018.4
20220813203030 74 246 3.0 10.0 0.00 0.00 0.00 51 1018.4
20220813202520 75 250 3.0 8.0 0.00 0.00 0.00 54 1018.4
20220813202006 75 268 3.0 9.0 0.00 0.00 0.00 53 1018.4
20220813201556 75 209 5.0 9.0 0.00 0.00 0.00 50 1018.4
20220813201046 75 244 5.0 9.0 0.00 0.00 0.00 53 1018.5
20220813200532 75 235 5.0 9.0 0.00 0.00 0.00 51 1018.5
20220813200020 76 257 4.0 7.0 0.00 0.00 0.00 49 1018.6
20220813195507 76 283 3.0 7.0 0.00 0.00 0.00 53 1018.7
20220813195105 75 265 2.0 7.0 0.00 0.00 0.00 53 1018.6
20220813194546 75 229 3.0 9.0 0.00 0.00 0.00 49 1018.8
20220813194035 75 265 4.0 9.0 0.00 0.00 0.00 53 1018.8
20220813193523 75 306 2.0 7.0 0.00 0.00 0.00 54 1018.9
20220813193009 75 316 2.0 8.0 0.00 0.00 0.00 53 1019.0
20220813192601 75 216 4.0 7.0 0.00 0.00 0.00 52 1019.1
20220813192046 75 198 1.0 4.0 0.00 0.00 0.00 47 1019.2
20220813191545 75 205 2.0 4.0 0.00 0.00 0.00 50 1019.2
20220813191027 75 225 2.0 5.0 0.00 0.00 0.00 50 1019.2
20220813190511 75 239 3.0 5.0 0.00 0.00 0.00 50 1019.2
20220813190101 76 276 2.0 5.0 0.00 0.00 0.00 50 1019.3
20220813185553 76 251 2.0 6.0 0.00 0.00 0.00 51 1019.5
20220813185037 76 243 1.0 6.0 0.00 0.00 0.00 50 1019.5
20220813184545 76 21 2.0 3.0 0.00 0.00 0.00 48 1019.6
20220813184014 75 252 1.0 3.0 0.00 0.00 0.00 46 1019.6
20220813183502 75 107 0.0 3.0 0.00 0.00 0.00 52 1019.5
20220813183136 75 89 1.0 3.0 0.00 0.00 0.00 49 1019.5
20220813182543 75 107 0.0 4.0 0.00 0.00 0.00 46 1019.5
20220813182032 75 77 2.0 4.0 0.00 0.00 0.00 45 1019.5
20220813181513 75 154 1.0 4.0 0.00 0.00 0.00 49 1019.6
20220813181103 75 185 2.0 4.0 0.00 0.00 0.00 44 1019.5
20220813180548 75 154 2.0 4.0 0.00 0.00 0.00 45 1019.6
20220813180045 75 230 1.0 7.0 0.00 0.00 0.00 44 1019.7
20220813175524 75 245 1.0 7.0 0.00 0.00 0.00 47 1019.7
20220813175012 75 208 1.0 4.0 0.00 0.00 0.00 45 1019.9
20220813174602 75 194 1.0 6.0 0.00 0.00 0.00 45 1020.0
20220813174052 75 155 2.0 6.0 0.00 0.00 0.00 49 1020.0
20220813173537 76 202 1.0 5.0 0.00 0.00 0.00 48 1020.0
20220813173032 76 120 2.0 5.0 0.00 0.00 0.00 46 1020.1
20220813172518 75 30 2.0 4.0 0.00 0.00 0.00 49 1020.3
20220813172004 75 274 1.0 5.0 0.00 0.00 0.00 48 1020.3
20220813171614 75 328 2.0 5.0 0.00 0.00 0.00 46 1020.4
20220813171041 75 319 1.0 5.0 0.00 0.00 0.00 44 1020.6
20220813170527 75 257 3.0 5.0 0.00 0.00 0.00 46 1020.7
20220813170017 75 67 1.0 6.0 0.00 0.00 0.00 46 1020.8
20220813165504 75 21 3.0 6.0 0.00 0.00 0.00 50 1020.9
20220813165054 75 46 3.0 6.0 0.00 0.00 0.00 51 1021.0
20220813164605 75 8 3.0 6.0 0.00 0.00 0.00 47 1021.1
20220813164027 74 53 2.0 7.0 0.00 0.00 0.00 50 1021.0
20220813163514 75 101 0.0 5.0 0.00 0.00 0.00 46 1021.0
20220813163008 75 18 2.0 5.0 0.00 0.00 0.00 49 1021.1
20220813162553 75 54 0.0 6.0 0.00 0.00 0.00 49 1021.0
20220813162033 75 46 3.0 7.0 0.00 0.00 0.00 47 1021.0
20220813161533 74 19 0.0 4.0 0.00 0.00 0.00 49 1021.1
20220813161008 74 185 0.0 3.0 0.00 0.00 0.00 49 1021.0
20220813160558 74 42 1.0 4.0 0.00 0.00 0.00 49 1021.0
20220813160052 74 64 2.0 5.0 0.00 0.00 0.00 48 1021.0
20220813155540 74 66 1.0 5.0 0.00 0.00 0.00 48 1021.0
20220813155025 74 347 0.0 4.0 0.00 0.00 0.00 45 1021.1
20220813154513 74 202 1.0 4.0 0.00 0.00 0.00 50 1021.0
20220813154100 74 138 1.0 8.0 0.00 0.00 0.00 45 1021.0
20220813153549 74 132 3.0 8.0 0.00 0.00 0.00 51 1021.1
20220813153038 74 9 0.0 9.0 0.00 0.00 0.00 53 1021.1
20220813152523 75 97 4.0 9.0 0.00 0.00 0.00 53 1021.4
20220813152010 74 108 2.0 9.0 0.00 0.00 0.00 55 1021.4
20220813151601 73 156 2.0 5.0 0.00 0.00 0.00 57 1021.4
20220813151051 73 189 2.0 8.0 0.00 0.00 0.00 56 1021.3
20220813150536 72 108 5.0 8.0 0.00 0.00 0.00 55 1021.4
20220813150033 72 49 2.0 5.0 0.00 0.00 0.00 59 1021.4
20220813145512 72 180 1.0 8.0 0.00 0.00 0.00 59 1021.3
20220813145002 71 89 4.0 7.0 0.00 0.00 0.00 62 1021.4
20220813144558 71 24 3.0 6.0 0.00 0.00 0.00 57 1021.6
20220813144042 71 63 4.0 9.0 0.00 0.00 0.00 61 1021.5
20220813143528 71 53 2.0 9.0 0.00 0.00 0.00 63 1021.3
20220813143015 71 132 3.0 9.0 0.00 0.00 0.00 65 1021.4
20220813142503 70 77 3.0 8.0 0.00 0.00 0.00 65 1021.4
20220813142056 70 25 3.0 9.0 0.00 0.00 0.00 66 1021.4
20220813141541 70 106 4.0 9.0 0.00 0.00 0.00 65 1021.2
20220813141032 69 110 1.0 5.0 0.00 0.00 0.00 72 1021.1
20220813140518 69 154 2.0 5.0 0.00 0.00 0.00 69 1021.2
20220813140005 68 110 1.0 4.0 0.00 0.00 0.00 74 1021.3
20220813135554 68 117 2.0 4.0 0.00 0.00 0.00 74 1021.2
20220813135044 67 92 0.0 3.0 0.00 0.00 0.00 77 1021.2
20220813134539 66 72 0.0 4.0 0.00 0.00 0.00 79 1021.2
20220813134020 66 90 1.0 4.0 0.00 0.00 0.00 80 1021.2
20220813133509 65 113 1.0 4.0 0.00 0.00 0.00 82 1021.2
20220813133116 64 145 0.0 4.0 0.00 0.00 0.00 83 1021.3
20220813132544 63 114 2.0 3.0 0.00 0.00 0.00 83 1021.3
20220813132032 63 207 0.0 2.0 0.00 0.00 0.00 84 1021.4
20220813131535 63 207 0.0 2.0 0.00 0.00 0.00 86 1021.4
20220813131007 62 258 0.0 2.0 0.00 0.00 0.00 87 1021.5
20220813130600 62 258 0.0 1.0 0.00 0.00 0.00 89 1021.6
20220813130054 61 258 0.0 2.0 0.00 0.00 0.00 89 1021.5
20220813125537 61 258 0.0 2.0 0.00 0.00 0.00 90 1021.7
20220813125017 60 310 1.0 2.0 0.00 0.00 0.00 91 1021.6
20220813124508 60 246 1.0 2.0 0.00 0.00 0.00 93 1021.5
20220813124104 59 60 0.0 1.0 0.00 0.00 0.00 91 1021.6
20220813123542 58 60 0.0 2.0 0.00 0.00 0.00 91 1021.5
20220813123034 58 60 0.0 2.0 0.00 0.00 0.00 91 1021.5
20220813122519 58 60 1.0 2.0 0.00 0.00 0.00 92 1021.5
20220813122006 57 53 0.0 1.0 0.00 0.00 0.00 92 1021.5
20220813121557 57 53 0.0 1.0 0.00 0.00 0.00 93 1021.5
20220813121045 56 53 0.0 1.0 0.00 0.00 0.00 93 1021.5
20220813120533 55 53 0.0 2.0 0.00 0.00 0.00 92 1021.5
20220813120021 55 53 0.0 2.0 0.00 0.00 0.00 92 1021.4
20220813115509 54 56 1.0 2.0 0.00 0.00 0.00 96 1021.4
20220813115059 54 43 0.0 2.0 0.00 0.00 0.00 96 1021.3
20220813114545 54 43 0.0 1.0 0.00 0.00 0.00 96 1021.3
20220813114037 53 43 0.0 0.0 0.00 0.00 0.00 95 1021.3
20220813113523 53 43 0.0 1.0 0.00 0.00 0.00 95 1021.4
20220813113013 53 43 0.0 1.0 0.00 0.00 0.00 95 1021.3
20220813112557 52 43 0.0 1.0 0.00 0.00 0.00 95 1021.2
20220813112045 52 43 0.0 1.0 0.00 0.00 0.00 95 1021.2
20220813111540 52 43 0.0 1.0 0.00 0.00 0.00 94 1021.3
20220813111028 52 43 0.0 2.0 0.00 0.00 0.00 94 1021.2
20220813110511 52 43 0.0 2.0 0.00 0.00 0.00 93 1021.2
20220813110106 51 43 0.0 1.0 0.00 0.00 0.00 93 1021.2
20220813105550 51 43 0.0 1.0 0.00 0.00 0.00 92 1021.1
20220813105046 51 43 0.0 1.0 0.00 0.00 0.00 92 1021.0
20220813104524 51 43 0.0 1.0 0.00 0.00 0.00 92 1020.9
20220813104013 51 43 0.0 1.0 0.00 0.00 0.00 92 1020.8
20220813103603 51 43 0.0 1.0 0.00 0.00 0.00 92 1020.9
20220813103104 51 43 0.0 1.0 0.00 0.00 0.00 92 1020.9
20220813102538 51 43 0.0 2.0 0.00 0.00 0.00 93 1020.9
20220813102026 51 43 1.0 2.0 0.00 0.00 0.00 93 1020.9
20220813101518 51 43 1.0 2.0 0.00 0.00 0.00 93 1020.8
20220813101001 51 43 1.0 2.0 0.00 0.00 0.00 93 1020.8
20220813100551 51 43 0.0 1.0 0.00 0.00 0.00 93 1020.8
20220813100045 51 43 0.0 1.0 0.00 0.00 0.00 93 1020.8
20220813095527 51 43 0.0 1.0 0.00 0.00 0.00 93 1020.8
20220813095015 51 43 0.0 1.0 0.00 0.00 0.00 93 1020.9
20220813094504 51 43 0.0 2.0 0.00 0.00 0.00 93 1020.9
20220813094054 51 43 1.0 2.0 0.00 0.00 0.00 92 1021.0
20220813093546 52 43 1.0 2.0 0.00 0.00 0.00 92 1020.8
20220813093058 51 43 0.0 2.0 0.00 0.00 0.00 92 1020.8
20220813092524 51 43 0.0 3.0 0.00 0.00 0.00 92 1020.7
20220813092009 51 43 1.0 3.0 0.00 0.00 0.00 92 1020.7
20220813091556 51 43 1.0 3.0 0.00 0.00 0.00 93 1020.7
20220813091044 51 43 1.0 3.0 0.00 0.00 0.00 93 1020.7
20220813090536 51 43 1.0 2.0 0.00 0.00 0.00 94 1020.8
20220813090020 51 43 1.0 2.0 0.00 0.00 0.00 93 1020.6
20220813085508 51 43 1.0 2.0 0.00 0.00 0.00 93 1020.8
20220813085055 51 43 1.0 2.0 0.00 0.00 0.00 93 1020.8
20220813084543 51 43 1.0 2.0 0.00 0.00 0.00 93 1020.8
20220813084031 51 43 0.0 2.0 0.00 0.00 0.00 94 1020.8
20220813083519 51 43 0.0 1.0 0.00 0.00 0.00 93 1020.9
20220813083034 51 43 0.0 1.0 0.00 0.00 0.00 93 1021.0
20220813082557 51 43 0.0 2.0 0.00 0.00 0.00 93 1021.0
20220813082053 51 43 0.0 2.0 0.00 0.00 0.00 93 1020.9
20220813081544 51 62 0.0 1.0 0.00 0.00 0.00 93 1020.9
20220813081023 51 62 0.0 3.0 0.00 0.00 0.00 92 1020.9
20220813080510 51 62 1.0 3.0 0.00 0.00 0.00 92 1020.6
20220813080137 51 56 0.0 2.0 0.00 0.00 0.00 92 1020.6
20220813075550 51 24 0.0 1.0 0.00 0.00 0.00 91 1020.7
20220813075037 51 24 0.0 2.0 0.00 0.00 0.00 92 1020.7
20220813074545 51 24 0.0 2.0 0.00 0.00 0.00 91 1020.7
20220813074011 51 24 0.0 2.0 0.00 0.00 0.00 91 1020.6
20220813073607 51 24 0.0 1.0 0.00 0.00 0.00 91 1020.8
20220813073056 52 24 0.0 1.0 0.00 0.00 0.00 91 1020.7
20220813072538 52 24 0.0 1.0 0.00 0.00 0.00 91 1020.7
20220813072032 52 24 0.0 1.0 0.00 0.00 0.00 90 1020.7
20220813071514 52 24 0.0 1.0 0.00 0.00 0.00 89 1020.7
20220813071005 52 24 0.0 2.0 0.00 0.00 0.00 89 1020.7
20220813070552 52 24 0.0 2.0 0.00 0.00 0.00 89 1020.8
20220813070136 52 24 0.0 1.0 0.00 0.00 0.00 87 1020.7
20220813065527 52 24 0.0 1.0 0.00 0.00 0.00 87 1020.8
20220813065015 53 24 0.0 1.0 0.00 0.00 0.00 86 1020.7
20220813064522 53 24 0.0 1.0 0.00 0.00 0.00 87 1020.6
20220813064056 53 24 0.0 2.0 0.00 0.00 0.00 86 1020.6
20220813063543 53 24 0.0 2.0 0.00 0.00 0.00 86 1020.6
20220813063048 53 24 0.0 1.0 0.00 0.00 0.00 84 1020.7
20220813062519 53 24 0.0 1.0 0.00 0.00 0.00 83 1020.7
20220813062004 53 24 0.0 1.0 0.00 0.00 0.00 83 1020.7
20220813061601 54 24 0.0 1.0 0.00 0.00 0.00 82 1020.7
20220813061045 54 24 0.0 0.0 0.00 0.00 0.00 82 1020.7
20220813060535 54 24 0.0 1.0 0.00 0.00 0.00 82 1020.8
20220813060033 54 24 0.0 1.0 0.00 0.00 0.00 81 1020.7
20220813055505 54 24 0.0 1.0 0.00 0.00 0.00 82 1020.9
20220813055054 54 24 0.0 2.0 0.00 0.00 0.00 82 1020.8
20220813054549 55 24 0.0 2.0 0.00 0.00 0.00 82 1020.9
20220813054030 55 43 0.0 1.0 0.00 0.00 0.00 81 1020.9
20220813053518 55 43 0.0 2.0 0.00 0.00 0.00 79 1021.0
20220813053028 55 43 0.0 2.0 0.00 0.00 0.00 80 1020.8
20220813052559 55 43 0.0 2.0 0.00 0.00 0.00 80 1020.9
20220813052045 55 43 0.0 1.0 0.00 0.00 0.00 79 1020.9
20220813051535 55 43 0.0 2.0 0.00 0.00 0.00 79 1020.9
20220813051021 55 43 0.0 2.0 0.00 0.00 0.00 78 1021.0
20220813050506 56 33 0.0 1.0 0.00 0.00 0.00 79 1021.1
20220813050106 56 33 0.0 1.0 0.00 0.00 0.00 78 1021.1
20220813045548 56 33 0.0 0.0 0.00 0.00 0.00 78 1021.2
20220813045035 56 33 0.0 0.0 0.00 0.00 0.00 78 1021.2
20220813044520 57 33 0.0 1.0 0.00 0.00 0.00 78 1021.1
20220813044012 57 33 0.0 2.0 0.00 0.00 0.00 78 1021.1
20220813043559 57 33 0.0 2.0 0.00 0.00 0.00 77 1021.1
20220813043049 57 33 0.0 2.0 0.00 0.00 0.00 77 1021.0
20220813042537 58 33 0.0 1.0 0.00 0.00 0.00 76 1021.0
20220813042020 58 33 0.0 1.0 0.00 0.00 0.00 76 1021.0
20220813041508 58 33 0.0 1.0 0.00 0.00 0.00 75 1021.0
20220813041058 59 33 0.0 1.0 0.00 0.00 0.00 76 1021.0
20220813040545 59 33 0.0 2.0 0.00 0.00 0.00 76 1020.9
20220813040030 60 33 0.0 2.0 0.00 0.00 0.00 75 1020.8
20220813035518 60 33 1.0 2.0 0.00 0.00 0.00 74 1020.9
20220813035006 60 33 1.0 3.0 0.00 0.00 0.00 73 1020.9
20220813034602 61 33 1.0 3.0 0.00 0.00 0.00 72 1020.8
20220813034045 61 33 1.0 3.0 0.00 0.00 0.00 72 1020.8
20220813033533 61 36 1.0 3.0 0.00 0.00 0.00 71 1020.6
20220813033016 61 39 1.0 3.0 0.00 0.00 0.00 71 1020.7
20220813032503 61 35 1.0 3.0 0.00 0.00 0.00 72 1020.7
20220813032058 61 44 1.0 3.0 0.00 0.00 0.00 72 1020.6
20220813031542 61 40 1.0 3.0 0.00 0.00 0.00 71 1020.6
20220813031035 61 36 1.0 3.0 0.00 0.00 0.00 72 1020.6
20220813030521 61 32 1.0 3.0 0.00 0.00 0.00 71 1020.6
20220813030006 61 54 1.0 3.0 0.00 0.00 0.00 69 1020.6
20220813025557 61 33 1.0 3.0 0.00 0.00 0.00 70 1020.6
20220813025047 62 52 0.0 3.0 0.00 0.00 0.00 71 1020.5
20220813024546 62 51 1.0 3.0 0.00 0.00 0.00 70 1020.6
20220813024020 62 44 0.0 3.0 0.00 0.00 0.00 70 1020.6
20220813023508 62 44 1.0 2.0 0.00 0.00 0.00 69 1020.5
20220813023059 62 62 1.0 2.0 0.00 0.00 0.00 68 1020.6
20220813022549 62 77 0.0 3.0 0.00 0.00 0.00 68 1020.6
20220813022036 63 70 1.0 3.0 0.00 0.00 0.00 69 1020.5
20220813021522 63 60 1.0 3.0 0.00 0.00 0.00 69 1020.6
20220813021013 63 49 0.0 3.0 0.00 0.00 0.00 70 1020.6
20220813020558 63 52 1.0 3.0 0.00 0.00 0.00 70 1020.6
20220813020113 63 37 1.0 2.0 0.00 0.00 0.00 69 1020.5
20220813015530 63 43 0.0 2.0 0.00 0.00 0.00 68 1020.3
20220813015017 64 41 0.0 3.0 0.00 0.00 0.00 68 1020.2
20220813014503 64 64 1.0 3.0 0.00 0.00 0.00 68 1020.1
20220813014055 64 45 1.0 3.0 0.00 0.00 0.00 66 1020.1
20220813013541 64 42 1.0 3.0 0.00 0.00 0.00 66 1020.1
20220813013032 65 62 0.0 2.0 0.00 0.00 0.00 67 1020.0
20220813012521 65 21 1.0 4.0 0.00 0.00 0.00 67 1020.0
20220813012002 65 21 1.0 4.0 0.00 0.00 0.00 67 1019.8
20220813011603 65 18 1.0 4.0 0.00 0.00 0.00 66 1019.7
20220813011039 65 29 1.0 4.0 0.00 0.00 0.00 66 1019.6
20220813010528 66 27 1.0 3.0 0.00 0.00 0.00 66 1019.6
20220813010016 66 7 1.0 4.0 0.00 0.00 0.00 65 1019.6
20220813005503 66 16 1.0 4.0 0.00 0.00 0.00 65 1019.5
20220813005053 66 20 1.0 4.0 0.00 0.00 0.00 63 1019.5
20220813004542 67 34 2.0 3.0 0.00 0.00 0.00 63 1019.5
20220813004035 67 18 1.0 3.0 0.00 0.00 0.00 63 1019.5
20220813003519 67 20 1.0 3.0 0.00 0.00 0.00 62 1019.5
20220813003016 67 355 0.0 4.0 0.00 0.00 0.00 62 1019.5
20220813002601 68 314 1.0 6.0 0.00 0.00 0.00 62 1019.5
20220813002047 68 12 2.0 6.0 0.00 0.00 0.00 61 1019.5
20220813001539 69 360 2.0 6.0 0.00 0.00 0.00 61 1019.5
20220813001020 69 357 1.0 6.0 0.00 0.00 0.00 61 1019.5
20220813000515 69 24 0.0 4.0 0.00 0.00 0.00 60 1019.5
20220813000114 70 1 1.0 5.0 0.00 0.00 0.00 59 1019.5
20220812235554 70 355 2.0 8.0 0.00 0.00 0.00 56 1019.5
20220812235035 71 13 2.0 8.0 0.00 0.00 0.00 56 1019.3
20220812234523 72 38 2.0 8.0 0.00 0.00 0.00 55 1019.3
20220812234011 72 347 1.0 6.0 0.00 0.00 0.00 56 1019.3
20220812233606 73 20 2.0 7.0 0.00 0.00 0.00 55 1019.3
20220812233050 73 36 3.0 9.0 0.00 0.00 0.00 53 1019.2
20220812232537 73 345 5.0 9.0 0.00 0.00 0.00 51 1019.1
20220812232026 74 16 3.0 7.0 0.00 0.00 0.00 52 1019.2
20220812231551 74 357 2.0 8.0 0.00 0.00 0.00 50 1019.2
20220812231006 74 4 4.0 8.0 0.00 0.00 0.00 50 1019.1
20220812230556 74 35 3.0 9.0 0.00 0.00 0.00 51 1019.2
20220812230042 75 6 4.0 10.0 0.00 0.00 0.00 49 1019.1
20220812225520 75 13 5.0 10.0 0.00 0.00 0.00 51 1019.0
20220812225007 75 15 2.0 8.0 0.00 0.00 0.00 52 1018.9
20220812224603 75 41 3.0 7.0 0.00 0.00 0.00 52 1019.0
20220812224047 75 342 3.0 10.0 0.00 0.00 0.00 52 1019.0
20220812223535 75 39 3.0 10.0 0.00 0.00 0.00 50 1018.9
20220812223020 75 28 5.0 10.0 0.00 0.00 0.00 51 1018.9
20220812222513 75 4 5.0 10.0 0.00 0.00 0.00 51 1018.9
20220812222059 75 22 3.0 7.0 0.00 0.00 0.00 54 1018.9
20220812221601 75 303 3.0 9.0 0.00 0.00 0.00 55 1019.0
20220812221036 75 8 3.0 10.0 0.00 0.00 0.00 54 1019.0
20220812220521 75 37 4.0 10.0 0.00 0.00 0.00 52 1019.1
20220812220010 75 4 5.0 9.0 0.00 0.00 0.00 53 1019.3
20220812215605 76 25 4.0 8.0 0.00 0.00 0.00 52 1019.2
20220812215042 76 15 4.0 8.0 0.00 0.00 0.00 51 1019.2
20220812214534 76 1 6.0 11.0 0.00 0.00 0.00 52 1019.3
20220812214018 77 52 7.0 11.0 0.00 0.00 0.00 52 1019.2
20220812213505 77 35 7.0 10.0 0.00 0.00 0.00 51 1019.3
20220812213056 77 38 3.0 9.0 0.00 0.00 0.00 51 1019.3
20220812212543 78 47 4.0 7.0 0.00 0.00 0.00 53 1019.5
20220812212033 77 8 4.0 9.0 0.00 0.00 0.00 52 1019.6
20220812211520 77 43 5.0 10.0 0.00 0.00 0.00 52 1019.8
20220812211010 77 335 4.0 10.0 0.00 0.00 0.00 55 1019.8
20220812210559 76 60 3.0 10.0 0.00 0.00 0.00 56 1019.7